DMSP 5D-2 F13 DEB, 40605

Orbit data source: Space-Track

DMSP 5D-2 F13 DEB, 40605 is space debris in SSO originally from a launch on Fri, 24 Mar 1995 UTC launched from the Air Force Western Test Range (AFWTR). Debris objects in space refer to the collection of defunct objects orbiting the Earth. Examples of debris include non-operational satellites, rocket bodies, and fragments generated from explosions, collisions, or faulty payload assembly.

Loading next visibility...
Identifier
40605, 1995-015FC
Orbit
SSO
Country
Flag of USUS
Related business
Manufacturer
Unknown
Mission
Spacecraft
Bus & Motor
Unknown
Mass
Unknown
Launch date (UTC)
1995-03-24 (31 years ago)
Launch vehicle
Unknown
Launch site
Air Force Western Test Range (AFWTR)
Object type
Payload
Rocket body
Debris
Shape & HBR
Unknown shape, 0.1 m
Radar Cross Section
Small (<0.1 m²)

Expand to show TLE details & history
Last TLE update: 1 day ago

TLE from 1 day ago
0 DMSP 5D-2 F13 DEB
1 40605U 95015FC  25348.42632990  .00013557  00000-0  30129-2 0  9990
2 40605  98.6342  44.4689 0019872  82.7752 277.5703 14.57001653555606
Epoch: 2025-12-14T10:13Z
TLE epoch observation values (Epoch: 2025-12-14T10:13:54.903Z)
Latitude
-0.00005°
Longitude
167.65073°
Altitude
704.013 km
Speed
7.505 km/s
True Right ascension
02h 57m 52s
True Declination
0° 00' 00"
Sunlit
Object was in full shadow at epoch
Visualization orbit readout
Latitude
Unknown
Longitude
Unknown
Altitude
Unknown
Speed
Unknown
Apparent Right ascension
Unknown
Apparent Declination
Unknown
Sunlit
N/A
Visualization observer readout
Local Sidereal Time
13:02:16
Azimuth
Unknown
Elevation
Unknown
Doppler factor
Unknown
Orbital elements
Apogee altitude
714.043 km
Perigee altitude
685.912 km
Semi-major axis
7,078.115 km
Eccentricity
0.00199
Inclination
98.6342°
RAAN
44.4689°
Arg. of periapsis
82.7752°
True anomaly
277.3445°
Mean anomaly
277.5703°
Eccentric anomaly
277.4574°
Mean motion
3.64474 °/min
Orbital period
98.77 mins
BSTAR
0.0030129
Loading maneuver chart data...
Computing Atmospheric mass density...

Documentation

Showing up to 5 results
|